This is the latest recevied weather packets stored in our database for station/object YN1JLX-13. If no packets are shown the sender has not sent any weather packets the latest 10 day(s).
| Time | Temp. | Humidity | Pressure | Rain* | Wind** | Luminosity | Snow |
|---|---|---|---|---|---|---|---|
| 1778093756 | 28.89° C | 39% | 1010 hPa | 0 mm | - | - | - |
| 1778093156 | 28.89° C | 40% | 1010 hPa | 0 mm | - | - | - |
| 1778092556 | 28.89° C | 40% | 1010 hPa | 0 mm | - | - | - |
| 1778091955 | 27.22° C | 46% | 1011 hPa | 0 mm | - | - | - |
| 1778091355 | 27.22° C | 46% | 1011 hPa | 0 mm | - | - | - |
| 1778090754 | 27.22° C | 46% | 1011 hPa | 0 mm | - | - | - |
| 1778090153 | 27.78° C | 46% | 1011 hPa | 0 mm | - | - | - |
| 1778089553 | 26.11° C | 46% | 1011 hPa | 0 mm | - | - | - |
| 1778088953 | 26.11° C | 46% | 1011 hPa | 0 mm | - | - | - |
| 1778088352 | 27.22° C | 46% | 1012 hPa | 0 mm | - | - | - |
| 1778087752 | 26.11° C | 48% | 1012 hPa | 0 mm | - | - | - |
| 1778087152 | 26.11° C | 49% | 1012 hPa | 0 mm | - | - | - |
| 1778086551 | 26.11° C | 49% | 1012 hPa | 0 mm | - | - | - |
| 1778085951 | 26.11° C | 49% | 1012 hPa | 0 mm | - | - | - |
| 1778085351 | 25.56° C | 52% | 1012 hPa | 0 mm | - | - | - |
| 1778084751 | 25° C | 56% | 1013 hPa | 0 mm | - | - | - |
| 1778084150 | 26.11° C | 57% | 1013 hPa | 0 mm | - | - | - |
| 1778083550 | 27.22° C | 58% | 1013 hPa | 0 mm | - | - | - |
| 1778082950 | 24.44° C | 58% | 1013 hPa | 0 mm | - | - | - |
| 1778082349 | 24.44° C | 58% | 1013 hPa | 0 mm | - | - | - |
| 1778081749 | 23.33° C | 58% | 1013 hPa | 0 mm | - | - | - |
| 1778081149 | 23.33° C | 58% | 1013 hPa | 0 mm | - | - | - |
| 1778080548 | 22.78° C | 58% | 1013 hPa | 0 mm | - | - | - |
| 1778079948 | 23.89° C | 58% | 1013 hPa | 0 mm | - | - | - |
| 1778079348 | 23.33° C | 58% | 1013 hPa | 0 mm | - | - | - |
* Rain latest hour (hover to see other rain measurements)
** Current wind speed in m/s (hover to see current wind gust speed)